Time,TemperatureF,DewpointF,PressureIn,WindDirection,WindDirectionDegrees,WindSpeedMPH,WindSpeedGustMPH,Humidity,HourlyPrecipIn,Conditions,Clouds,dailyrainin,SoftwareType,DateUTC
2013-02-23 00:00:00,46.9,30.1,29.80,NE,45,1.5,3.1,52,0.00,,,0.00,WUHU216HW,2013-02-23 06:00:00,
2013-02-23 00:05:00,46.9,30.5,29.79,NNE,23,0.6,3.1,53,0.00,,,0.00,WUHU216HW,2013-02-23 06:05:00,
2013-02-23 00:10:00,46.7,30.4,29.80,NNE,23,0.0,1.5,53,0.00,,,0.00,WUHU216HW,2013-02-23 06:10:00,
2013-02-23 00:15:00,46.5,30.7,29.80,East,90,0.0,0.6,54,0.00,,,0.00,WUHU216HW,2013-02-23 06:15:00,
2013-02-23 00:20:00,46.5,30.7,29.80,East,90,0.0,0.0,54,0.00,,,0.00,WUHU216HW,2013-02-23 06:20:00,
2013-02-23 00:25:00,46.5,30.7,29.80,East,90,0.0,0.0,54,0.00,,,0.00,WUHU216HW,2013-02-23 06:25:00,
2013-02-23 00:30:00,46.4,30.5,29.80,East,90,0.0,0.0,54,0.00,,,0.00,WUHU216HW,2013-02-23 06:30:00,
2013-02-23 00:35:00,46.2,30.8,29.80,East,90,0.0,0.0,55,0.00,,,0.00,WUHU216HW,2013-02-23 06:35:00,
2013-02-23 00:40:00,46.2,30.8,29.79,East,90,0.0,0.0,55,0.00,,,0.00,WUHU216HW,2013-02-23 06:40:00,
2013-02-23 00:45:00,46.0,30.6,29.79,East,90,0.0,0.0,55,0.00,,,0.00,WUHU216HW,2013-02-23 06:45:00,
2013-02-23 00:50:00,46.0,30.2,29.80,East,90,0.0,0.0,54,0.00,,,0.00,WUHU216HW,2013-02-23 06:50:00,
2013-02-23 00:55:00,45.8,30.0,29.81,East,90,0.0,0.0,54,0.00,,,0.00,WUHU216HW,2013-02-23 06:55:00,
2013-02-23 01:00:00,45.5,30.2,29.80,East,90,0.0,0.0,55,0.00,,,0.00,WUHU216HW,2013-02-23 07:00:00,
2013-02-23 01:05:00,45.3,30.0,29.80,ENE,68,0.0,0.0,55,0.00,,,0.00,WUHU216HW,2013-02-23 07:05:00,
2013-02-23 01:10:00,45.1,29.8,29.80,ENE,68,0.0,0.0,55,0.00,,,0.00,WUHU216HW,2013-02-23 07:10:00,
2013-02-23 01:15:00,44.7,30.0,29.80,ENE,68,0.0,0.0,56,0.00,,,0.00,WUHU216HW,2013-02-23 07:15:00,
2013-02-23 01:20:00,44.4,29.6,29.80,ENE,68,0.0,0.0,56,0.00,,,0.00,WUHU216HW,2013-02-23 07:20:00,
2013-02-23 01:25:00,44.2,29.9,29.80,ENE,68,0.0,0.0,57,0.00,,,0.00,WUHU216HW,2013-02-23 07:25:00,
2013-02-23 01:30:00,43.8,29.5,29.80,ENE,68,0.0,0.0,57,0.00,,,0.00,WUHU216HW,2013-02-23 07:30:00,
2013-02-23 01:35:00,43.7,29.4,29.80,NE,45,0.0,0.0,57,0.00,,,0.00,WUHU216HW,2013-02-23 07:35:00,
2013-02-23 01:40:00,43.7,29.4,29.79,NE,45,0.0,0.0,57,0.00,,,0.00,WUHU216HW,2013-02-23 07:40:00,
2013-02-23 01:45:00,43.5,29.6,29.79,NE,45,0.0,0.0,58,0.00,,,0.00,WUHU216HW,2013-02-23 07:45:00,
2013-02-23 01:50:00,43.5,29.2,29.80,NNE,23,0.0,0.0,57,0.00,,,0.00,WUHU216HW,2013-02-23 07:50:00,
2013-02-23 01:55:00,43.5,29.2,29.80,NNE,23,0.0,0.0,57,0.00,,,0.00,WUHU216HW,2013-02-23 07:55:00,
2013-02-23 02:00:00,43.5,29.2,29.80,NNE,23,0.0,0.0,57,0.00,,,0.00,WUHU216HW,2013-02-23 08:00:00,
2013-02-23 02:05:00,43.5,29.6,29.79,NNE,23,0.0,0.0,58,0.00,,,0.00,WUHU216HW,2013-02-23 08:05:00,
2013-02-23 02:10:00,43.5,29.6,29.79,NNE,23,0.0,0.0,58,0.00,,,0.00,WUHU216HW,2013-02-23 08:10:00,
2013-02-23 02:15:00,43.3,29.4,29.79,NNE,23,0.0,0.0,58,0.00,,,0.00,WUHU216HW,2013-02-23 08:15:00,
2013-02-23 02:20:00,43.1,29.3,29.79,NNE,23,0.0,0.0,58,0.00,,,0.00,WUHU216HW,2013-02-23 08:20:00,
2013-02-23 02:25:00,43.1,29.3,29.79,NNE,23,0.0,0.0,58,0.00,,,0.00,WUHU216HW,2013-02-23 08:25:00,
2013-02-23 02:30:00,43.3,29.4,29.78,NNE,23,0.0,0.0,58,0.00,,,0.00,WUHU216HW,2013-02-23 08:30:00,
2013-02-23 02:35:00,43.1,29.3,29.78,NNE,23,0.0,0.0,58,0.00,,,0.00,WUHU216HW,2013-02-23 08:35:00,
2013-02-23 02:40:00,43.1,29.3,29.79,NNE,23,0.0,0.0,58,0.00,,,0.00,WUHU216HW,2013-02-23 08:40:00,
2013-02-23 02:45:00,42.9,29.5,29.79,NNE,23,0.0,0.0,59,0.00,,,0.00,WUHU216HW,2013-02-23 08:45:00,
2013-02-23 02:50:00,42.6,29.2,29.79,NNE,23,0.0,0.0,59,0.00,,,0.00,WUHU216HW,2013-02-23 08:50:00,
2013-02-23 02:55:00,42.6,29.2,29.79,NNE,23,0.0,0.0,59,0.00,,,0.00,WUHU216HW,2013-02-23 08:55:00,
2013-02-23 03:00:00,42.6,29.6,29.79,NNE,23,0.0,0.0,60,0.00,,,0.00,WUHU216HW,2013-02-23 09:00:00,
2013-02-23 03:05:00,42.6,29.6,29.78,NNE,23,0.0,0.0,60,0.00,,,0.00,WUHU216HW,2013-02-23 09:05:00,
2013-02-23 03:10:00,42.6,29.6,29.79,NNE,23,0.0,0.0,60,0.00,,,0.00,WUHU216HW,2013-02-23 09:10:00,
2013-02-23 03:15:00,42.6,29.2,29.78,NNE,23,0.0,0.0,59,0.00,,,0.00,WUHU216HW,2013-02-23 09:15:00,
2013-02-23 03:20:00,42.6,29.2,29.78,NNE,23,0.0,0.0,59,0.00,,,0.00,WUHU216HW,2013-02-23 09:20:00,
2013-02-23 03:25:00,42.4,29.5,29.79,NNE,23,0.0,0.0,60,0.00,,,0.00,WUHU216HW,2013-02-23 09:25:00,
2013-02-23 03:30:00,42.4,29.5,29.78,NNE,23,0.0,0.0,60,0.00,,,0.00,WUHU216HW,2013-02-23 09:30:00,
2013-02-23 03:35:00,42.4,29.5,29.79,NNE,23,0.0,0.0,60,0.00,,,0.00,WUHU216HW,2013-02-23 09:35:00,
2013-02-23 03:40:00,42.0,29.1,29.79,North,0,0.0,0.0,60,0.00,,,0.00,WUHU216HW,2013-02-23 09:40:00,
2013-02-23 03:45:00,41.9,29.0,29.79,North,0,0.0,0.0,60,0.00,,,0.00,WUHU216HW,2013-02-23 09:45:00,
2013-02-23 03:50:00,41.7,28.8,29.79,North,0,0.0,0.0,60,0.00,,,0.00,WUHU216HW,2013-02-23 09:50:00,
2013-02-23 03:55:00,41.7,28.8,29.79,North,0,0.0,0.0,60,0.00,,,0.00,WUHU216HW,2013-02-23 09:55:00,
2013-02-23 04:00:00,41.5,28.7,29.79,North,0,0.0,0.0,60,0.00,,,0.00,WUHU216HW,2013-02-23 10:00:00,
2013-02-23 04:05:00,41.5,28.7,29.78,North,0,0.0,0.0,60,0.00,,,0.00,WUHU216HW,2013-02-23 10:05:00,
2013-02-23 04:10:00,41.5,28.7,29.78,North,0,0.0,0.0,60,0.00,,,0.00,WUHU216HW,2013-02-23 10:10:00,
2013-02-23 04:15:00,41.3,28.5,29.78,North,0,0.0,0.0,60,0.00,,,0.00,WUHU216HW,2013-02-23 10:15:00,
2013-02-23 04:20:00,41.1,28.3,29.79,North,0,0.0,0.0,60,0.00,,,0.00,WUHU216HW,2013-02-23 10:20:00,
2013-02-23 04:25:00,41.1,28.3,29.79,North,0,0.0,0.0,60,0.00,,,0.00,WUHU216HW,2013-02-23 10:25:00,
2013-02-23 04:30:00,41.0,28.2,29.79,North,0,0.0,0.0,60,0.00,,,0.00,WUHU216HW,2013-02-23 10:30:00,
2013-02-23 04:35:00,40.8,28.4,29.79,North,0,0.0,0.0,61,0.00,,,0.00,WUHU216HW,2013-02-23 10:35:00,
2013-02-23 04:40:00,40.8,28.4,29.79,North,0,0.0,0.0,61,0.00,,,0.00,WUHU216HW,2013-02-23 10:40:00,
2013-02-23 04:45:00,40.8,28.4,29.80,North,0,0.0,0.0,61,0.00,,,0.00,WUHU216HW,2013-02-23 10:45:00,
2013-02-23 04:50:00,40.8,28.7,29.80,North,0,0.0,0.0,62,0.00,,,0.00,WUHU216HW,2013-02-23 10:50:00,
2013-02-23 04:55:00,40.6,28.6,29.80,North,0,0.0,0.0,62,0.00,,,0.00,WUHU216HW,2013-02-23 10:55:00,
2013-02-23 05:00:00,40.6,28.9,29.80,North,0,0.0,0.0,63,0.00,,,0.00,WUHU216HW,2013-02-23 11:00:00,
2013-02-23 05:05:00,40.6,29.3,29.80,North,0,0.0,0.0,64,0.00,,,0.00,WUHU216HW,2013-02-23 11:05:00,
2013-02-23 05:10:00,40.4,29.1,29.80,North,0,0.0,0.0,64,0.00,,,0.00,WUHU216HW,2013-02-23 11:10:00,
2013-02-23 05:15:00,40.1,28.8,29.80,North,0,0.0,0.0,64,0.00,,,0.00,WUHU216HW,2013-02-23 11:15:00,
2013-02-23 05:20:00,39.9,28.6,29.80,North,0,0.0,0.0,64,0.00,,,0.00,WUHU216HW,2013-02-23 11:20:00,
2013-02-23 05:25:00,39.9,28.6,29.79,North,0,0.0,0.0,64,0.00,,,0.00,WUHU216HW,2013-02-23 11:25:00,
2013-02-23 05:30:00,39.5,28.6,29.79,North,0,0.0,0.0,65,0.00,,,0.00,WUHU216HW,2013-02-23 11:30:00,
2013-02-23 05:35:00,39.3,28.4,29.79,North,0,0.0,0.0,65,0.00,,,0.00,WUHU216HW,2013-02-23 11:35:00,
2013-02-23 05:40:00,39.3,28.8,29.79,North,0,0.0,0.0,66,0.00,,,0.00,WUHU216HW,2013-02-23 11:40:00,
2013-02-23 05:45:00,39.0,28.5,29.79,North,0,0.0,0.0,66,0.00,,,0.00,WUHU216HW,2013-02-23 11:45:00,
2013-02-23 05:50:00,39.0,28.9,29.79,North,0,0.0,0.0,67,0.00,,,0.00,WUHU216HW,2013-02-23 11:50:00,
2013-02-23 05:55:00,38.8,28.3,29.80,North,0,0.0,0.0,66,0.00,,,0.00,WUHU216HW,2013-02-23 11:55:00,
2013-02-23 06:00:00,38.4,28.4,29.80,North,0,0.0,0.0,67,0.00,,,0.00,WUHU216HW,2013-02-23 12:00:00,
2013-02-23 06:05:00,38.3,27.8,29.81,North,0,0.0,0.0,66,0.00,,,0.00,WUHU216HW,2013-02-23 12:05:00,
2013-02-23 06:10:00,38.1,27.7,29.80,North,0,0.0,0.0,66,0.00,,,0.00,WUHU216HW,2013-02-23 12:10:00,
2013-02-23 06:15:00,37.7,27.3,29.80,North,0,0.0,0.0,66,0.00,,,0.00,WUHU216HW,2013-02-23 12:15:00,
2013-02-23 06:20:00,37.5,27.2,29.80,North,0,0.0,0.0,66,0.00,,,0.00,WUHU216HW,2013-02-23 12:20:00,
2013-02-23 06:25:00,37.4,27.0,29.79,North,0,0.0,0.0,66,0.00,,,0.00,WUHU216HW,2013-02-23 12:25:00,
2013-02-23 06:30:00,37.4,27.0,29.80,North,0,0.0,0.0,66,0.00,,,0.00,WUHU216HW,2013-02-23 12:30:00,
2013-02-23 06:35:00,37.2,26.8,29.80,North,0,0.0,0.0,66,0.00,,,0.00,WUHU216HW,2013-02-23 12:35:00,
2013-02-23 06:40:00,37.2,26.8,29.80,North,0,0.0,0.0,66,0.00,,,0.00,WUHU216HW,2013-02-23 12:40:00,
2013-02-23 06:45:00,37.2,26.8,29.81,North,0,0.0,0.0,66,0.00,,,0.00,WUHU216HW,2013-02-23 12:45:00,
2013-02-23 06:50:00,37.0,27.0,29.81,North,0,0.0,0.0,67,0.00,,,0.00,WUHU216HW,2013-02-23 12:50:00,
2013-02-23 06:55:00,37.0,26.7,29.81,North,0,0.0,0.0,66,0.00,,,0.00,WUHU216HW,2013-02-23 12:55:00,
2013-02-23 07:00:00,37.0,26.7,29.80,North,0,0.0,0.0,66,0.00,,,0.00,WUHU216HW,2013-02-23 13:00:00,
2013-02-23 07:05:00,36.8,26.5,29.81,North,0,0.0,0.0,66,0.00,,,0.00,WUHU216HW,2013-02-23 13:05:00,
2013-02-23 07:10:00,36.8,26.5,29.80,North,0,0.0,0.0,66,0.00,,,0.00,WUHU216HW,2013-02-23 13:10:00,
2013-02-23 07:15:00,36.5,26.5,29.81,North,0,0.0,0.0,67,0.00,,,0.00,WUHU216HW,2013-02-23 13:15:00,
2013-02-23 07:20:00,36.5,26.5,29.81,North,0,0.0,0.0,67,0.00,,,0.00,WUHU216HW,2013-02-23 13:20:00,
2013-02-23 07:25:00,36.5,26.5,29.82,North,0,0.0,0.0,67,0.00,,,0.00,WUHU216HW,2013-02-23 13:25:00,
2013-02-23 07:30:00,36.5,26.9,29.81,North,0,0.0,0.0,68,0.00,,,0.00,WUHU216HW,2013-02-23 13:30:00,
2013-02-23 07:35:00,36.6,27.1,29.81,North,0,0.0,0.0,68,0.00,,,0.00,WUHU216HW,2013-02-23 13:35:00,
2013-02-23 07:40:00,36.6,27.4,29.81,NE,45,0.0,0.0,69,0.00,,,0.00,WUHU216HW,2013-02-23 13:40:00,
2013-02-23 07:45:00,37.2,28.0,29.82,NW,315,0.0,0.8,69,0.00,,,0.00,WUHU216HW,2013-02-23 13:45:00,
2013-02-23 07:50:00,37.4,28.2,29.81,NW,315,0.0,0.8,69,0.00,,,0.00,WUHU216HW,2013-02-23 13:50:00,
2013-02-23 07:55:00,37.9,29.0,29.81,NW,315,0.0,0.0,70,0.00,,,0.00,WUHU216HW,2013-02-23 13:55:00,
2013-02-23 08:00:00,39.0,30.3,29.82,West,270,0.0,1.7,71,0.00,,,0.00,WUHU216HW,2013-02-23 14:00:00,
2013-02-23 08:05:00,40.4,31.7,29.81,West,270,0.0,1.7,71,0.00,,,0.00,WUHU216HW,2013-02-23 14:05:00,
2013-02-23 08:10:00,43.8,33.6,29.82,West,270,1.5,1.5,67,0.00,,,0.00,WUHU216HW,2013-02-23 14:10:00,
2013-02-23 08:15:00,48.7,35.9,29.82,NW,315,0.8,1.5,61,0.00,,,0.00,WUHU216HW,2013-02-23 14:15:00,
2013-02-23 08:20:00,51.4,37.0,29.81,WNW,293,1.7,1.7,58,0.00,,,0.00,WUHU216HW,2013-02-23 14:20:00,
2013-02-23 08:25:00,54.5,37.6,29.82,WNW,293,2.0,2.2,53,0.00,,,0.00,WUHU216HW,2013-02-23 14:25:00,
2013-02-23 08:30:00,55.9,38.0,29.82,WNW,293,2.9,2.9,51,0.00,,,0.00,WUHU216HW,2013-02-23 14:30:00,
2013-02-23 08:35:00,57.3,38.4,29.82,West,270,2.0,2.9,49,0.00,,,0.00,WUHU216HW,2013-02-23 14:35:00,
2013-02-23 08:40:00,58.6,38.4,29.83,West,270,1.3,2.9,47,0.00,,,0.00,WUHU216HW,2013-02-23 14:40:00,
2013-02-23 08:45:00,58.8,37.9,29.83,NW,315,4.6,4.6,46,0.00,,,0.00,WUHU216HW,2013-02-23 14:45:00,
2013-02-23 08:50:00,59.9,38.3,29.84,WNW,293,2.2,4.6,45,0.00,,,0.00,WUHU216HW,2013-02-23 14:50:00,
2013-02-23 08:55:00,60.6,37.8,29.83,West,270,0.0,4.6,43,0.00,,,0.00,WUHU216HW,2013-02-23 14:55:00,
2013-02-23 09:00:00,61.3,37.3,29.83,WSW,248,4.0,4.0,41,0.00,,,0.00,WUHU216HW,2013-02-23 15:00:00,
2013-02-23 09:05:00,60.0,35.6,29.83,SW,225,7.3,7.3,40,0.00,,,0.00,WUHU216HW,2013-02-23 15:05:00,
2013-02-23 09:10:00,59.9,36.0,29.83,West,270,0.0,7.3,41,0.00,,,0.00,WUHU216HW,2013-02-23 15:10:00,
2013-02-23 09:15:00,61.3,37.3,29.84,West,270,3.1,4.0,41,0.00,,,0.00,WUHU216HW,2013-02-23 15:15:00,
2013-02-23 09:20:00,61.1,37.2,29.84,NW,315,1.7,4.0,41,0.00,,,0.00,WUHU216HW,2013-02-23 15:20:00,
2013-02-23 09:25:00,60.4,36.1,29.84,NW,315,0.0,3.1,40,0.00,,,0.00,WUHU216HW,2013-02-23 15:25:00,
2013-02-23 09:30:00,60.4,35.9,29.83,SSW,203,0.0,1.1,40,0.00,,,0.00,WUHU216HW,2013-02-23 15:30:00,
2013-02-23 09:35:00,59.3,35.6,29.83,WNW,293,0.0,2.4,41,0.00,,,0.00,WUHU216HW,2013-02-23 15:35:00,
2013-02-23 09:40:00,57.5,32.8,29.83,SSE,158,0.0,2.4,41,0.00,,,0.00,WUHU216HW,2013-02-23 15:40:00,
2013-02-23 09:45:00,54.3,32.7,29.83,West,270,1.3,1.3,44,0.00,,,0.00,WUHU216HW,2013-02-23 15:45:00,
2013-02-23 09:50:00,53.6,32.0,29.83,WSW,248,2.2,2.2,44,0.00,,,0.00,WUHU216HW,2013-02-23 15:50:00,
2013-02-23 09:55:00,52.8,31.9,29.84,SSW,203,1.1,2.2,45,0.00,,,0.00,WUHU216HW,2013-02-23 15:55:00,
2013-02-23 10:00:00,52.3,32.6,29.83,West,270,1.3,2.0,47,0.00,,,0.00,WUHU216HW,2013-02-23 16:00:00,
2013-02-23 10:05:00,52.7,32.3,29.83,NNW,338,0.0,2.0,46,0.00,,,0.00,WUHU216HW,2013-02-23 16:05:00,
2013-02-23 10:10:00,53.4,33.3,29.83,NNW,338,2.4,2.4,46,0.00,,,0.00,WUHU216HW,2013-02-23 16:10:00,
2013-02-23 10:15:00,53.7,33.3,29.83,WSW,248,0.8,2.4,46,0.00,,,0.00,WUHU216HW,2013-02-23 16:15:00,
2013-02-23 10:20:00,53.4,33.0,29.83,NE,45,0.0,2.4,46,0.00,,,0.00,WUHU216HW,2013-02-23 16:20:00,
2013-02-23 10:25:00,53.4,32.4,29.82,NE,45,0.0,0.8,46,0.00,,,0.00,WUHU216HW,2013-02-23 16:25:00,
2013-02-23 10:30:00,53.7,33.3,29.82,West,270,1.1,1.1,46,0.00,,,0.00,WUHU216HW,2013-02-23 16:30:00,
2013-02-23 10:35:00,54.1,33.6,29.81,ESE,113,0.0,1.1,46,0.00,,,0.00,WUHU216HW,2013-02-23 16:35:00,
2013-02-23 10:40:00,55.0,33.9,29.81,SW,225,0.0,1.1,45,0.00,,,0.00,WUHU216HW,2013-02-23 16:40:00,
2013-02-23 10:45:00,55.0,33.9,29.81,West,270,0.6,0.6,45,0.00,,,0.00,WUHU216HW,2013-02-23 16:45:00,
2013-02-23 10:50:00,54.8,34.3,29.81,ENE,68,0.0,1.7,46,0.00,,,0.00,WUHU216HW,2013-02-23 16:50:00,
2013-02-23 10:55:00,54.5,33.9,29.81,SE,135,3.3,3.3,46,0.00,,,0.00,WUHU216HW,2013-02-23 16:55:00,
2013-02-23 11:00:00,54.5,33.9,29.81,SSE,158,0.0,3.3,46,0.00,,,0.00,WUHU216HW,2013-02-23 17:00:00,
2013-02-23 11:05:00,55.2,35.2,29.81,ESE,113,0.0,3.3,47,0.00,,,0.00,WUHU216HW,2013-02-23 17:05:00,
2013-02-23 11:10:00,55.5,35.5,29.81,West,270,2.2,2.2,47,0.00,,,0.00,WUHU216HW,2013-02-23 17:10:00,
2013-02-23 11:15:00,55.9,35.3,29.81,WNW,293,2.0,2.2,46,0.00,,,0.00,WUHU216HW,2013-02-23 17:15:00,
2013-02-23 11:20:00,56.3,35.6,29.80,East,90,0.0,2.2,46,0.00,,,0.00,WUHU216HW,2013-02-23 17:20:00,
2013-02-23 11:25:00,57.0,36.3,29.80,WNW,293,0.0,2.0,46,0.00,,,0.00,WUHU216HW,2013-02-23 17:25:00,
2013-02-23 11:30:00,57.5,36.2,29.80,WSW,248,0.8,0.8,45,0.00,,,0.00,WUHU216HW,2013-02-23 17:30:00,
2013-02-23 11:35:00,58.1,37.3,29.80,NNW,338,0.0,0.8,46,0.00,,,0.00,WUHU216HW,2013-02-23 17:35:00,
2013-02-23 11:40:00,58.8,36.8,29.80,WSW,248,2.6,2.6,44,0.00,,,0.00,WUHU216HW,2013-02-23 17:40:00,
2013-02-23 11:45:00,58.8,36.8,29.80,WNW,293,0.0,2.6,44,0.00,,,0.00,WUHU216HW,2013-02-23 17:45:00,
2013-02-23 11:50:00,58.8,37.4,29.80,West,270,0.0,2.6,45,0.00,,,0.00,WUHU216HW,2013-02-23 17:50:00,
2013-02-23 11:55:00,59.1,36.8,29.79,WSW,248,0.0,3.5,44,0.00,,,0.00,WUHU216HW,2013-02-23 17:55:00,
2013-02-23 12:00:00,59.5,36.9,29.79,WSW,248,0.0,3.5,43,0.00,,,0.00,WUHU216HW,2013-02-23 18:00:00,
2013-02-23 12:05:00,60.0,37.9,29.79,West,270,0.0,1.3,44,0.00,,,0.00,WUHU216HW,2013-02-23 18:05:00,
2013-02-23 12:10:00,60.6,37.8,29.78,West,270,0.0,0.0,43,0.00,,,0.00,WUHU216HW,2013-02-23 18:10:00,
2013-02-23 12:15:00,60.9,38.2,29.78,SE,135,0.0,0.0,43,0.00,,,0.00,WUHU216HW,2013-02-23 18:15:00,
2013-02-23 12:20:00,61.5,39.2,29.77,NNE,23,1.7,1.7,44,0.00,,,0.00,WUHU216HW,2013-02-23 18:20:00,
2013-02-23 12:25:00,62.4,40.0,29.77,East,90,2.4,2.9,44,0.00,,,0.00,WUHU216HW,2013-02-23 18:25:00,
2013-02-23 12:30:00,62.7,40.4,29.77,ENE,68,0.0,2.9,44,0.00,,,0.00,WUHU216HW,2013-02-23 18:30:00,
2013-02-23 12:35:00,63.1,39.5,29.77,NW,315,6.7,6.7,42,0.00,,,0.00,WUHU216HW,2013-02-23 18:35:00,
2013-02-23 12:40:00,63.6,40.0,29.76,NNE,23,0.0,6.7,42,0.00,,,0.00,WUHU216HW,2013-02-23 18:40:00,
2013-02-23 12:45:00,64.2,40.5,29.76,WNW,293,4.9,7.3,42,0.00,,,0.00,WUHU216HW,2013-02-23 18:45:00,
2013-02-23 12:50:00,64.5,40.2,29.75,WNW,293,0.0,7.3,41,0.00,,,0.00,WUHU216HW,2013-02-23 18:50:00,
2013-02-23 12:55:00,64.9,40.0,29.76,SW,225,4.9,4.9,40,0.00,,,0.00,WUHU216HW,2013-02-23 18:55:00,
2013-02-23 13:00:00,65.1,40.7,29.75,NNW,338,1.5,4.9,41,0.00,,,0.00,WUHU216HW,2013-02-23 19:00:00,
2013-02-23 13:05:00,65.3,40.3,29.74,NW,315,1.7,6.2,40,0.00,,,0.00,WUHU216HW,2013-02-23 19:05:00,
2013-02-23 13:10:00,65.6,40.6,29.74,NW,315,3.5,6.2,40,0.00,,,0.00,WUHU216HW,2013-02-23 19:10:00,
2013-02-23 13:15:00,66.0,41.0,29.73,NNW,338,2.6,9.3,40,0.00,,,0.00,WUHU216HW,2013-02-23 19:15:00,
2013-02-23 13:20:00,66.0,40.2,29.73,West,270,2.6,9.3,39,0.00,,,0.00,WUHU216HW,2013-02-23 19:20:00,
2013-02-23 13:25:00,66.5,40.7,29.72,WSW,248,2.9,4.4,39,0.00,,,0.00,WUHU216HW,2013-02-23 19:25:00,
2013-02-23 13:30:00,66.7,40.2,29.72,WNW,293,4.6,4.6,38,0.00,,,0.00,WUHU216HW,2013-02-23 19:30:00,
2013-02-23 13:35:00,67.1,40.5,29.72,SSW,203,3.1,5.5,38,0.00,,,0.00,WUHU216HW,2013-02-23 19:35:00,
2013-02-23 13:40:00,67.1,38.4,29.72,West,270,4.2,5.5,35,0.00,,,0.00,WUHU216HW,2013-02-23 19:40:00,
2013-02-23 13:45:00,67.2,39.2,29.72,WSW,248,0.0,5.3,36,0.00,,,0.00,WUHU216HW,2013-02-23 19:45:00,
2013-02-23 13:50:00,67.8,39.6,29.72,West,270,6.2,6.2,36,0.00,,,0.00,WUHU216HW,2013-02-23 19:50:00,
2013-02-23 13:55:00,67.8,38.2,29.71,WSW,248,2.9,8.9,34,0.00,,,0.00,WUHU216HW,2013-02-23 19:55:00,
2013-02-23 14:00:00,67.8,38.2,29.71,West,270,6.4,8.9,34,0.00,,,0.00,WUHU216HW,2013-02-23 20:00:00,
2013-02-23 14:05:00,67.8,37.4,29.71,West,270,3.5,6.7,33,0.00,,,0.00,WUHU216HW,2013-02-23 20:05:00,
2013-02-23 14:10:00,67.8,38.2,29.70,NW,315,6.7,6.7,34,0.00,,,0.00,WUHU216HW,2013-02-23 20:10:00,
2013-02-23 14:15:00,67.8,37.4,29.70,WNW,293,3.8,6.7,33,0.00,,,0.00,WUHU216HW,2013-02-23 20:15:00,
2013-02-23 14:20:00,67.8,37.4,29.70,NNW,338,7.3,7.8,33,0.00,,,0.00,WUHU216HW,2013-02-23 20:20:00,
2013-02-23 14:25:00,67.8,37.4,29.70,West,270,3.8,7.8,33,0.00,,,0.00,WUHU216HW,2013-02-23 20:25:00,
2013-02-23 14:30:00,68.1,37.7,29.69,NW,315,7.6,7.6,33,0.00,,,0.00,WUHU216HW,2013-02-23 20:30:00,
2013-02-23 14:35:00,68.5,38.1,29.69,West,270,7.6,7.6,33,0.00,,,0.00,WUHU216HW,2013-02-23 20:35:00,
2013-02-23 14:40:00,68.7,37.5,29.69,NNW,338,3.8,7.6,32,0.00,,,0.00,WUHU216HW,2013-02-23 20:40:00,
2013-02-23 14:45:00,68.7,37.5,29.68,WSW,248,3.3,5.5,32,0.00,,,0.00,WUHU216HW,2013-02-23 20:45:00,
2013-02-23 14:50:00,68.7,38.2,29.68,WSW,248,4.6,5.5,33,0.00,,,0.00,WUHU216HW,2013-02-23 20:50:00,
2013-02-23 14:55:00,68.9,37.7,29.68,West,270,6.9,7.1,32,0.00,,,0.00,WUHU216HW,2013-02-23 20:55:00,
2013-02-23 15:00:00,68.9,37.7,29.67,West,270,5.5,7.1,32,0.00,,,0.00,WUHU216HW,2013-02-23 21:00:00,
2013-02-23 15:05:00,69.0,37.8,29.67,SW,225,8.2,8.2,32,0.00,,,0.00,WUHU216HW,2013-02-23 21:05:00,
2013-02-23 15:10:00,68.9,37.7,29.67,WNW,293,4.6,8.2,32,0.00,,,0.00,WUHU216HW,2013-02-23 21:10:00,
2013-02-23 15:15:00,69.0,37.8,29.67,West,270,2.9,8.2,32,0.00,,,0.00,WUHU216HW,2013-02-23 21:15:00,
2013-02-23 15:20:00,68.9,36.9,29.67,NW,315,4.4,4.6,31,0.00,,,0.00,WUHU216HW,2013-02-23 21:20:00,
2013-02-23 15:25:00,69.0,37.8,29.67,WNW,293,3.3,5.5,32,0.00,,,0.00,WUHU216HW,2013-02-23 21:25:00,
2013-02-23 15:30:00,69.2,37.2,29.66,NW,315,2.2,8.2,31,0.00,,,0.00,WUHU216HW,2013-02-23 21:30:00,
2013-02-23 15:35:00,69.2,37.2,29.66,North,0,3.5,8.2,31,0.00,,,0.00,WUHU216HW,2013-02-23 21:35:00,
2013-02-23 15:40:00,69.2,36.5,29.66,WNW,293,6.7,6.7,30,0.00,,,0.00,WUHU216HW,2013-02-23 21:40:00,
2013-02-23 15:45:00,69.4,36.7,29.66,WSW,248,4.0,6.7,30,0.00,,,0.00,WUHU216HW,2013-02-23 21:45:00,
2013-02-23 15:50:00,69.6,37.6,29.65,NW,315,1.1,6.7,31,0.00,,,0.00,WUHU216HW,2013-02-23 21:50:00,
2013-02-23 15:55:00,70.1,37.3,29.65,WSW,248,0.0,4.0,30,0.00,,,0.00,WUHU216HW,2013-02-23 21:55:00,
2013-02-23 16:00:00,70.3,37.5,29.65,WSW,248,3.1,3.1,30,0.00,,,0.00,WUHU216HW,2013-02-23 22:00:00,
2013-02-23 16:05:00,70.5,36.6,29.65,WNW,293,4.9,4.9,29,0.00,,,0.00,WUHU216HW,2013-02-23 22:05:00,
2013-02-23 16:10:00,71.2,37.3,29.65,North,0,0.0,4.9,29,0.00,,,0.00,WUHU216HW,2013-02-23 22:10:00,
2013-02-23 16:15:00,71.4,37.4,29.64,NNE,23,1.1,4.4,29,0.00,,,0.00,WUHU216HW,2013-02-23 22:15:00,
2013-02-23 16:20:00,71.4,37.4,29.64,ENE,68,0.0,1.7,29,0.00,,,0.00,WUHU216HW,2013-02-23 22:20:00,
2013-02-23 16:25:00,72.1,37.0,29.64,East,90,0.0,0.8,28,0.00,,,0.00,WUHU216HW,2013-02-23 22:25:00,
2013-02-23 16:30:00,72.5,37.3,29.64,SE,135,0.0,0.8,28,0.00,,,0.00,WUHU216HW,2013-02-23 22:30:00,
2013-02-23 16:35:00,72.5,37.3,29.64,SW,225,0.0,0.0,28,0.00,,,0.00,WUHU216HW,2013-02-23 22:35:00,
2013-02-23 16:40:00,72.6,36.4,29.64,North,0,0.0,3.5,27,0.00,,,0.00,WUHU216HW,2013-02-23 22:40:00,
2013-02-23 16:45:00,72.6,36.4,29.64,North,0,1.3,3.5,27,0.00,,,0.00,WUHU216HW,2013-02-23 22:45:00,
2013-02-23 16:50:00,72.1,35.1,29.63,WNW,293,4.2,4.2,26,0.00,,,0.00,WUHU216HW,2013-02-23 22:50:00,
2013-02-23 16:55:00,71.7,35.7,29.64,NNW,338,4.9,4.9,27,0.00,,,0.00,WUHU216HW,2013-02-23 22:55:00,
2013-02-23 17:00:00,71.4,35.4,29.63,West,270,2.0,4.9,27,0.00,,,0.00,WUHU216HW,2013-02-23 23:00:00,
2013-02-23 17:05:00,71.2,35.0,29.64,WNW,293,0.0,4.9,27,0.00,,,0.00,WUHU216HW,2013-02-23 23:05:00,
2013-02-23 17:10:00,70.5,33.6,29.63,WSW,248,3.1,3.1,26,0.00,,,0.00,WUHU216HW,2013-02-23 23:10:00,
2013-02-23 17:15:00,70.1,34.3,29.64,WNW,293,0.0,3.1,27,0.00,,,0.00,WUHU216HW,2013-02-23 23:15:00,
2013-02-23 17:20:00,69.6,33.8,29.64,West,270,0.0,5.1,27,0.00,,,0.00,WUHU216HW,2013-02-23 23:20:00,
2013-02-23 17:25:00,69.2,33.5,29.64,NW,315,0.8,5.1,27,0.00,,,0.00,WUHU216HW,2013-02-23 23:25:00,
2013-02-23 17:30:00,68.7,35.0,29.64,NNE,23,0.0,0.8,29,0.00,,,0.00,WUHU216HW,2013-02-23 23:30:00,
2013-02-23 17:35:00,68.3,33.7,29.64,NW,315,1.1,1.1,28,0.00,,,0.00,WUHU216HW,2013-02-23 23:35:00,
2013-02-23 17:40:00,67.8,33.2,29.64,NW,315,0.0,1.1,28,0.00,,,0.00,WUHU216HW,2013-02-23 23:40:00,
2013-02-23 17:45:00,67.8,33.2,29.64,WNW,293,0.0,0.8,28,0.00,,,0.00,WUHU216HW,2013-02-23 23:45:00,
2013-02-23 17:50:00,67.2,33.1,29.64,West,270,0.0,0.8,28,0.00,,,0.00,WUHU216HW,2013-02-23 23:50:00,
2013-02-23 17:55:00,67.1,32.7,29.63,West,270,0.0,0.8,28,0.00,,,0.00,WUHU216HW,2013-02-23 23:55:00,
2013-02-23 18:00:00,66.7,32.3,29.64,West,270,0.0,0.0,28,0.00,,,0.00,WUHU216HW,2013-02-24 00:00:00,
2013-02-23 18:05:00,66.2,32.9,29.64,West,270,0.0,0.0,29,0.00,,,0.00,WUHU216HW,2013-02-24 00:05:00,
2013-02-23 18:10:00,65.8,33.6,29.64,West,270,0.0,0.0,30,0.00,,,0.00,WUHU216HW,2013-02-24 00:10:00,
2013-02-23 18:15:00,65.4,33.3,29.64,West,270,0.0,0.0,30,0.00,,,0.00,WUHU216HW,2013-02-24 00:15:00,
2013-02-23 18:20:00,64.9,33.5,29.64,West,270,0.0,0.0,31,0.00,,,0.00,WUHU216HW,2013-02-24 00:20:00,
2013-02-23 18:25:00,64.2,33.6,29.64,West,270,0.0,0.0,32,0.00,,,0.00,WUHU216HW,2013-02-24 00:25:00,
2013-02-23 18:30:00,63.5,34.4,29.64,West,270,0.0,0.0,34,0.00,,,0.00,WUHU216HW,2013-02-24 00:30:00,
2013-02-23 18:35:00,63.1,35.5,29.64,West,270,0.0,0.0,36,0.00,,,0.00,WUHU216HW,2013-02-24 00:35:00,
2013-02-23 18:40:00,62.2,36.1,29.64,West,270,0.0,0.0,38,0.00,,,0.00,WUHU216HW,2013-02-24 00:40:00,
2013-02-23 18:45:00,61.5,36.2,29.65,West,270,0.0,0.0,39,0.00,,,0.00,WUHU216HW,2013-02-24 00:45:00,
2013-02-23 18:50:00,60.6,36.7,29.65,West,270,0.0,0.0,41,0.00,,,0.00,WUHU216HW,2013-02-24 00:50:00,
2013-02-23 18:55:00,60.4,36.5,29.65,West,270,0.0,0.0,41,0.00,,,0.00,WUHU216HW,2013-02-24 00:55:00,
2013-02-23 19:00:00,59.9,36.0,29.65,West,270,0.0,0.0,41,0.00,,,0.00,WUHU216HW,2013-02-24 01:00:00,
2013-02-23 19:05:00,59.1,36.0,29.65,West,270,0.0,0.0,42,0.00,,,0.00,WUHU216HW,2013-02-24 01:05:00,
2013-02-23 19:10:00,58.8,35.6,29.65,West,270,0.0,0.0,42,0.00,,,0.00,WUHU216HW,2013-02-24 01:10:00,
2013-02-23 19:15:00,58.4,34.7,29.65,West,270,0.0,0.0,41,0.00,,,0.00,WUHU216HW,2013-02-24 01:15:00,
2013-02-23 19:20:00,57.7,34.1,29.65,West,270,0.0,0.0,41,0.00,,,0.00,WUHU216HW,2013-02-24 01:20:00,
2013-02-23 19:25:00,57.3,33.8,29.66,West,270,0.0,0.0,41,0.00,,,0.00,WUHU216HW,2013-02-24 01:25:00,
2013-02-23 19:30:00,57.0,34.0,29.66,West,270,0.0,0.0,42,0.00,,,0.00,WUHU216HW,2013-02-24 01:30:00,
2013-02-23 19:35:00,56.8,35.6,29.66,West,270,0.0,0.0,45,0.00,,,0.00,WUHU216HW,2013-02-24 01:35:00,
2013-02-23 19:38:00,55.7,34.0,29.66,NNW,338,0.0,0.0,44,0.00,,,0.00,WUHU216HW,2013-02-24 01:38:00,
2013-02-23 19:40:00,56.1,34.9,29.66,WNW,293,0.0,0.0,45,0.00,,,0.00,WUHU216HW,2013-02-24 01:40:00,
2013-02-23 19:42:00,55.5,33.8,29.67,NNW,338,0.0,0.0,44,0.00,,,0.00,WUHU216HW,2013-02-24 01:42:00,
2013-02-23 19:52:00,55.5,33.8,29.67,NNW,338,0.0,0.0,44,0.00,,,0.00,WUHU216HW,2013-02-24 01:52:00,
2013-02-23 19:57:00,55.2,34.6,29.67,ENE,68,0.0,0.0,46,0.00,,,0.00,WUHU216HW,2013-02-24 01:57:00,
2013-02-23 20:02:00,55.2,34.6,29.67,ENE,68,0.0,0.0,46,0.00,,,0.00,WUHU216HW,2013-02-24 02:02:00,
2013-02-23 20:07:00,55.0,35.0,29.67,ENE,68,0.0,0.0,47,0.00,,,0.00,WUHU216HW,2013-02-24 02:07:00,
2013-02-23 20:12:00,54.6,35.2,29.68,ENE,68,0.0,0.0,48,0.00,,,0.00,WUHU216HW,2013-02-24 02:12:00,
2013-02-23 20:17:00,54.5,34.5,29.68,SE,135,0.0,1.7,47,0.00,,,0.00,WUHU216HW,2013-02-24 02:17:00,
2013-02-23 20:22:00,54.5,34.5,29.68,SE,135,0.0,1.7,47,0.00,,,0.00,WUHU216HW,2013-02-24 02:22:00,
2013-02-23 20:27:00,54.1,34.2,29.67,SE,135,0.0,0.0,47,0.00,,,0.00,WUHU216HW,2013-02-24 02:27:00,
2013-02-23 20:32:00,53.7,34.4,29.67,North,0,0.0,1.1,48,0.00,,,0.00,WUHU216HW,2013-02-24 02:32:00,
2013-02-23 20:37:00,53.7,35.0,29.68,NE,45,0.0,1.3,49,0.00,,,0.00,WUHU216HW,2013-02-24 02:37:00,
2013-02-23 20:39:00,53.7,35.5,29.68,East,90,0.6,4.4,50,0.00,,,0.00,WUHU216HW,2013-02-24 02:39:00,
2013-02-23 20:40:00,53.9,36.2,29.68,ENE,68,4.2,4.4,51,0.00,,,0.00,WUHU216HW,2013-02-24 02:40:00,
2013-02-23 20:42:00,53.7,35.5,29.68,East,90,4.4,4.4,50,0.00,,,0.00,WUHU216HW,2013-02-24 02:42:00,
2013-02-23 20:53:00,53.9,36.6,29.69,ESE,113,3.1,8.2,52,0.00,,,0.00,WUHU216HW,2013-02-24 02:53:00,
2013-02-23 20:54:00,54.1,36.8,29.69,ENE,68,5.8,6.0,52,0.00,,,0.00,WUHU216HW,2013-02-24 02:54:00,
2013-02-23 20:58:00,53.9,36.6,29.69,ESE,113,4.4,8.2,52,0.00,,,0.00,WUHU216HW,2013-02-24 02:58:00,
2013-02-23 21:04:00,54.1,36.8,29.69,ESE,113,7.1,7.1,52,0.00,,,0.00,WUHU216HW,2013-02-24 03:04:00,
2013-02-23 21:09:00,54.3,37.0,29.69,ENE,68,5.1,7.1,52,0.00,,,0.00,WUHU216HW,2013-02-24 03:09:00,
2013-02-23 21:14:00,54.3,37.4,29.69,ESE,113,5.3,7.1,53,0.00,,,0.00,WUHU216HW,2013-02-24 03:14:00,
2013-02-23 21:19:00,54.3,37.4,29.69,ESE,113,5.5,7.1,53,0.00,,,0.00,WUHU216HW,2013-02-24 03:19:00,
2013-02-23 21:20:00,54.1,37.3,29.70,East,90,3.1,6.9,53,0.00,,,0.00,WUHU216HW,2013-02-24 03:20:00,
2013-02-23 21:23:00,53.9,37.1,29.70,ESE,113,2.0,5.5,53,0.00,,,0.00,WUHU216HW,2013-02-24 03:23:00,
2013-02-23 21:24:00,54.1,37.3,29.70,East,90,3.1,6.9,53,0.00,,,0.00,WUHU216HW,2013-02-24 03:24:00,
2013-02-23 21:26:00,53.7,36.9,29.70,East,90,4.4,5.5,53,0.00,,,0.00,WUHU216HW,2013-02-24 03:26:00,
2013-02-23 21:29:00,53.7,37.4,29.70,East,90,5.5,7.1,54,0.00,,,0.00,WUHU216HW,2013-02-24 03:29:00,
2013-02-23 21:39:00,53.7,37.4,29.70,ESE,113,3.3,7.1,53,0.00,,,0.00,WUHU216HW,2013-02-24 03:39:00,
2013-02-23 21:44:00,53.4,36.6,29.70,East,90,4.4,7.3,53,0.00,,,0.00,WUHU216HW,2013-02-24 03:44:00,
2013-02-23 21:49:00,53.2,36.9,29.70,ENE,68,6.0,7.3,54,0.00,,,0.00,WUHU216HW,2013-02-24 03:49:00,
2013-02-23 21:52:00,52.8,36.6,29.70,ESE,113,2.4,6.0,54,0.00,,,0.00,WUHU216HW,2013-02-24 03:52:00,
2013-02-23 21:54:00,53.0,36.7,29.70,East,90,2.6,6.0,54,0.00,,,0.00,WUHU216HW,2013-02-24 03:54:00,
2013-02-23 21:55:00,52.8,37.0,29.70,East,90,4.6,4.6,55,0.00,,,0.00,WUHU216HW,2013-02-24 03:55:00,
2013-02-23 21:57:00,52.8,37.0,29.70,ENE,68,0.0,4.6,55,0.00,,,0.00,WUHU216HW,2013-02-24 03:57:00,
2013-02-23 22:00:00,52.7,36.8,29.70,East,90,3.8,4.6,55,0.00,,,0.00,WUHU216HW,2013-02-24 04:00:00,
2013-02-23 22:02:00,52.7,36.8,29.70,East,90,6.2,6.2,55,0.00,,,0.00,WUHU216HW,2013-02-24 04:02:00,
2013-02-23 22:03:00,52.5,37.1,29.70,East,90,1.5,6.2,55,0.00,,,0.00,WUHU216HW,2013-02-24 04:03:00,
2013-02-23 22:05:00,52.5,37.1,29.70,East,90,1.5,6.2,56,0.00,,,0.00,WUHU216HW,2013-02-24 04:05:00,
2013-02-23 22:06:00,52.5,37.1,29.70,East,90,4.9,6.2,56,0.00,,,0.00,WUHU216HW,2013-02-24 04:06:00,
2013-02-23 22:18:00,52.3,37.0,29.70,East,90,6.2,6.2,56,0.00,,,0.00,WUHU216HW,2013-02-24 04:18:00,
2013-02-23 22:23:00,52.1,36.8,29.70,ENE,68,5.1,6.2,56,0.00,,,0.00,WUHU216HW,2013-02-24 04:23:00,
2013-02-23 22:28:00,51.9,36.6,29.71,ESE,113,1.1,5.1,56,0.00,,,0.00,WUHU216HW,2013-02-24 04:28:00,
2013-02-23 22:33:00,51.6,35.8,29.70,ENE,68,0.0,1.7,55,0.00,,,0.00,WUHU216HW,2013-02-24 04:33:00,
2013-02-23 22:38:00,51.4,35.7,29.70,ESE,113,1.7,1.7,55,0.00,,,0.00,WUHU216HW,2013-02-24 04:38:00,
2013-02-23 22:43:00,51.0,35.4,29.70,ESE,113,0.0,1.7,55,0.00,,,0.00,WUHU216HW,2013-02-24 04:43:00,
2013-02-23 22:48:00,50.7,35.5,29.70,East,90,5.1,5.1,56,0.00,,,0.00,WUHU216HW,2013-02-24 04:48:00,
2013-02-23 22:53:00,50.5,35.8,29.70,ESE,113,0.0,5.1,57,0.00,,,0.00,WUHU216HW,2013-02-24 04:53:00,
2013-02-23 22:55:00,50.3,36.1,29.70,East,90,0.0,2.4,58,0.00,,,0.00,WUHU216HW,2013-02-24 04:55:00,
2013-02-23 22:58:00,50.5,35.8,29.70,ESE,113,0.0,5.1,57,0.00,,,0.00,WUHU216HW,2013-02-24 04:58:00,
2013-02-23 23:00:00,50.3,36.1,29.70,ENE,68,0.0,4.6,58,0.00,,,0.00,WUHU216HW,2013-02-24 05:00:00,
2013-02-23 23:01:00,50.1,35.9,29.70,ESE,113,0.0,1.1,58,0.00,,,0.00,WUHU216HW,2013-02-24 05:01:00,
2013-02-23 23:02:00,50.1,35.9,29.70,ESE,113,0.0,1.1,58,0.00,,,0.00,WUHU216HW,2013-02-24 05:02:00,
2013-02-23 23:04:00,50.1,35.9,29.70,ESE,113,0.0,1.1,58,0.00,,,0.00,WUHU216HW,2013-02-24 05:04:00,
2013-02-23 23:05:00,50.1,35.9,29.70,ESE,113,0.0,1.1,58,0.00,,,0.00,WUHU216HW,2013-02-24 05:05:00,
2013-02-23 23:07:00,49.8,35.6,29.70,ESE,113,0.0,1.1,58,0.00,,,0.00,WUHU216HW,2013-02-24 05:07:00,
2013-02-23 23:10:00,49.8,35.6,29.70,ESE,113,0.6,0.6,58,0.00,,,0.00,WUHU216HW,2013-02-24 05:10:00,
2013-02-23 23:12:00,49.8,36.0,29.70,East,90,2.6,2.6,59,0.00,,,0.00,WUHU216HW,2013-02-24 05:12:00,
2013-02-23 23:13:00,49.8,36.0,29.70,East,90,2.6,2.6,59,0.00,,,0.00,WUHU216HW,2013-02-24 05:13:00,
2013-02-23 23:15:00,49.6,35.8,29.69,ENE,68,1.1,2.6,59,0.00,,,0.00,WUHU216HW,2013-02-24 05:15:00,
2013-02-23 23:16:00,49.6,35.8,29.69,ESE,113,3.3,3.3,59,0.00,,,0.00,WUHU216HW,2013-02-24 05:16:00,
2013-02-23 23:27:00,49.6,35.8,29.69,ESE,113,3.3,3.3,59,0.00,,,0.00,WUHU216HW,2013-02-24 05:27:00,
2013-02-23 23:32:00,49.6,36.3,29.69,SE,135,0.4,3.3,60,0.00,,,0.00,WUHU216HW,2013-02-24 05:32:00,
2013-02-23 23:33:00,49.2,35.5,29.69,ESE,113,1.5,2.2,59,0.00,,,0.00,WUHU216HW,2013-02-24 05:33:00,
2013-02-23 23:35:00,49.1,35.4,29.69,ESE,113,1.5,2.2,59,0.00,,,0.00,WUHU216HW,2013-02-24 05:35:00,
2013-02-23 23:37:00,49.2,35.5,29.69,ESE,113,2.2,2.2,59,0.00,,,0.00,WUHU216HW,2013-02-24 05:37:00,
2013-02-23 23:41:00,48.7,35.5,29.68,ESE,113,3.5,3.5,60,0.00,,,0.00,WUHU216HW,2013-02-24 05:41:00,
2013-02-23 23:42:00,48.7,35.5,29.68,East,90,2.2,3.5,60,0.00,,,0.00,WUHU216HW,2013-02-24 05:42:00,
2013-02-23 23:44:00,48.7,35.9,29.68,ESE,113,2.6,3.5,61,0.00,,,0.00,WUHU216HW,2013-02-24 05:44:00,
2013-02-23 23:45:00,48.7,35.9,29.68,ESE,113,2.6,3.5,61,0.00,,,0.00,WUHU216HW,2013-02-24 05:45:00,
2013-02-23 23:47:00,48.7,35.9,29.68,ENE,68,2.0,3.5,61,0.00,,,0.00,WUHU216HW,2013-02-24 05:47:00,
2013-02-23 23:58:00,48.7,36.3,29.68,East,90,4.6,4.6,62,0.00,,,0.00,WUHU216HW,2013-02-24 05:58:00,